Tracking 31027 objects as of 19-Jul-2025
HD Live streaming from Space Station
objects crossing your sky now

CZ-3C DEB

Track CZ-3C DEB now!


NORAD ID: 40818
Int'l Code: 2010-057AK
Perigee: 744.3 km
Apogee: 35,609.2 km
Inclination: 20.1 °
Period: 637.9 minutes
Semi major axis: 24547 km
RCS: Unknown
Launch date: October 31, 2010
Source: People's Republic of China (PRC)
Launch site: Xichang Space Center, China (XSC)

Note: This is SATELLITE DEBRIS
Your satellite tracking list
DEWASAT-2
Track 1 satellite(s)




NASA's NSSDC Master Catalog

Two Line Element Set (TLE):
1 40818U 10057AK  25197.26719276 -.00000001  00000-0 -31114-4 0  9995
2 40818  20.0611 212.9918 7101433 311.1150   6.3828  2.25727718 85399
Source of the keplerian elements: AFSPC